Location: Unspecified
(50.7693°N, 0.0000°E)
Time: 03:01:11
(UTC+00:00)

Transit 4A - Pass Details

Date: 02 July 2019
Orbit: 866 x 978 km, 66.8° (Epoch: 13 October)

Event Time Altitude Azimuth Distance (km) Brightness Sun altitude
Rises 08:49:41 0° 272° (W) 3,662 10.6 43.5°
Reaches altitude 10° 08:52:48 10° 286° (WNW) 2,726 10.0 44.0°
Maximum altitude 08:57:52 24° 339° (NNW) 1,910 9.5 44.7°
Drops below altitude 10° 09:02:58 10° 31° (NNE) 2,736 10.6 45.5°
Sets 09:06:06 0° 45° (NE) 3,679 11.2 45.9°
